Location: *
(43.4667°N, 11.6833°E)
Time: 07:20:38
(UTC+00:00)

Cosmos 1743 Rocket - Pass Details

Date: 19 July 2019
Orbit: 605 x 632 km, 82.6° (Epoch: 25 August)

Event Time Altitude Azimuth Distance (km) Brightness Sun altitude
Exits shadow 20:21:54 14° 180° (S) 1,743 5.4 -13.9°
Maximum altitude 20:25:41 74° 97° (E) 643 3.5 -14.4°
Drops below altitude 10° 20:30:02 10° 12° (NNE) 1,973 6.7 -14.9°
Sets 20:32:15 0° 11° (N) 2,879 7.6 -15.2°
